| time (UTC) | temp F | wind direction | speed MPH | gust MPH | rain 1hr in | rain 24hr in | rain mn in | humidity % | barometer mb |
| 20260906185903 | 76 | 139 | 3.0 | 7.0 | 0.00 | 1.22 | 0.00 | 67 | 1015.6 |
| 20260906185403 | 76 | 126 | 5.0 | 8.0 | 0.00 | 1.22 | 0.00 | 66 | 1015.6 |
| 20260906184903 | 77 | 68 | 3.0 | 7.0 | 0.00 | 1.22 | 0.00 | 65 | 1015.7 |
| 20260906184530 | 77 | 305 | 3.0 | 9.0 | 0.00 | 1.22 | 0.00 | 67 | 1016.4 |
| 20260906184404 | 77 | 22 | 3.0 | 8.0 | 0.00 | 1.22 | 0.00 | 64 | 1015.7 |
| 20260906183903 | 78 | 2 | 5.0 | 9.0 | 0.00 | 1.22 | 0.00 | 65 | 1015.7 |
| 20260906183404 | 78 | 139 | 3.0 | 6.0 | 0.00 | 1.22 | 0.00 | 68 | 1015.7 |
| 20260906183050 | 77 | 69 | 1.0 | 6.0 | 0.00 | 1.22 | 0.00 | 70 | 1016.4 |
| 20260906182903 | 77 | 28 | 1.0 | 5.0 | 0.00 | 1.22 | 0.00 | 67 | 1015.6 |
| 20260906182403 | 77 | 78 | 2.0 | 7.0 | 0.00 | 1.22 | 0.00 | 68 | 1015.7 |
| 20260906181904 | 77 | 81 | 6.0 | 9.0 | 0.00 | 1.22 | 0.00 | 67 | 1015.6 |
| 20260906181519 | 77 | 84 | 3.0 | 8.0 | 0.00 | 1.22 | 0.00 | 68 | 1016.3 |
| 20260906181403 | 77 | 96 | 5.0 | 8.0 | 0.00 | 1.22 | 0.00 | 68 | 1015.7 |
| 20260906180904 | 77 | 99 | 3.0 | 7.0 | 0.00 | 1.22 | 0.00 | 69 | 1015.8 |
| 20260906180403 | 77 | 88 | 3.0 | 8.0 | 0.00 | 1.22 | 0.00 | 67 | 1015.8 |
| 20260906180003 | 77 | 102 | 3.0 | 10.0 | 0.00 | 1.22 | 0.00 | 69 | 1016.5 |
| 20260906175903 | 78 | 99 | 5.0 | 9.0 | 0.00 | 1.22 | 0.00 | 68 | 1015.9 |
| 20260906174903 | 77 | 135 | 3.0 | 7.0 | 0.00 | 1.22 | 0.00 | 70 | 1015.9 |
| 20260906174505 | 76 | 70 | 0.0 | 4.0 | 0.00 | 1.22 | 0.00 | 72 | 1016.6 |
| 20260906174404 | 76 | 117 | 3.0 | 5.0 | 0.00 | 1.22 | 0.00 | 70 | 1016.0 |
| 20260906173904 | 76 | 72 | 0.0 | 6.0 | 0.00 | 1.22 | 0.00 | 71 | 1016.1 |
| 20260906173404 | 76 | 89 | 2.0 | 6.0 | 0.00 | 1.22 | 0.00 | 71 | 1016.0 |
| 20260906173012 | 75 | 352 | 0.0 | 7.0 | 0.00 | 1.22 | 0.00 | 73 | 1016.7 |
| 20260906172904 | 76 | 356 | 2.0 | 7.0 | 0.00 | 1.22 | 0.00 | 71 | 1016.0 |
| 20260906172404 | 76 | 51 | 3.0 | 7.0 | 0.00 | 1.22 | 0.00 | 70 | 1016.0 |
| 20260906171903 | 77 | 117 | 7.0 | 10.0 | 0.00 | 1.22 | 0.00 | 71 | 1016.0 |
| 20260906171519 | 76 | 26 | 4.0 | 9.0 | 0.00 | 1.22 | 0.00 | 74 | 1016.7 |
| 20260906171404 | 76 | 105 | 6.0 | 9.0 | 0.00 | 1.22 | 0.00 | 73 | 1016.0 |
| 20260906170403 | 76 | 120 | 2.0 | 8.0 | 0.00 | 1.22 | 0.00 | 73 | 1016.1 |
| 20260906170026 | 76 | 116 | 4.0 | 10.0 | 0.00 | 1.22 | 0.00 | 74 | 1016.8 |
| 20260906165404 | 77 | 131 | 5.0 | 10.0 | 0.00 | 1.22 | 0.00 | 73 | 1016.1 |
| 20260906164904 | 77 | 125 | 3.0 | 8.0 | 0.00 | 1.22 | 0.00 | 72 | 1016.1 |
| 20260906164505 | 76 | 94 | 4.0 | 8.0 | 0.00 | 1.22 | 0.00 | 72 | 1016.8 |
| 20260906164403 | 76 | 133 | 5.0 | 8.0 | 0.00 | 1.22 | 0.00 | 71 | 1016.2 |
| 20260906163904 | 76 | 43 | 3.0 | 7.0 | 0.00 | 1.22 | 0.00 | 72 | 1016.2 |
| 20260906163404 | 76 | 47 | 3.0 | 6.0 | 0.00 | 1.22 | 0.00 | 76 | 1016.3 |
| 20260906163011 | 75 | 30 | 2.0 | 5.0 | 0.00 | 1.22 | 0.00 | 80 | 1016.9 |
| 20260906162903 | 75 | 341 | 2.0 | 6.0 | 0.00 | 1.22 | 0.00 | 78 | 1016.4 |
| 20260906162403 | 74 | 88 | 2.0 | 5.0 | 0.00 | 1.22 | 0.00 | 78 | 1016.2 |
| 20260906161512 | 74 | 63 | 2.0 | 8.0 | 0.00 | 1.22 | 0.00 | 80 | 1017.1 |
| 20260906161403 | 74 | 78 | 1.0 | 7.0 | 0.00 | 1.22 | 0.00 | 79 | 1016.4 |
| 20260906160903 | 74 | 105 | 5.0 | 8.0 | 0.00 | 1.22 | 0.00 | 78 | 1016.5 |
| 20260906160403 | 75 | 128 | 5.0 | 8.0 | 0.00 | 1.22 | 0.00 | 77 | 1016.6 |
| 20260906160022 | 74 | 73 | 2.0 | 9.0 | 0.00 | 1.22 | 0.00 | 82 | 1017.4 |
| 20260906155904 | 75 | 124 | 5.0 | 8.0 | 0.00 | 1.22 | 0.00 | 80 | 1016.7 |
| 20260906155403 | 75 | 34 | 2.0 | 9.0 | 0.00 | 1.22 | 0.00 | 81 | 1016.7 |
| 20260906154903 | 74 | 109 | 5.0 | 7.0 | 0.00 | 1.22 | 0.00 | 80 | 1016.7 |
| 20260906154523 | 74 | 142 | 3.0 | 10.0 | 0.00 | 1.22 | 0.00 | 82 | 1017.4 |
| 20260906153404 | 73 | 147 | 5.0 | 12.0 | 0.00 | 1.22 | 0.00 | 83 | 1016.6 |
| 20260906153006 | 73 | 144 | 4.0 | 8.0 | 0.00 | 1.22 | 0.00 | 84 | 1017.4 |
| 20260906152903 | 73 | 118 | 2.0 | 8.0 | 0.00 | 1.22 | 0.00 | 83 | 1016.7 |
| 20260906152403 | 73 | 116 | 5.0 | 7.0 | 0.00 | 1.22 | 0.00 | 82 | 1016.7 |
| 20260906151903 | 73 | 130 | 4.0 | 6.0 | 0.00 | 1.22 | 0.00 | 82 | 1016.7 |
| 20260906151522 | 73 | 196 | 2.0 | 7.0 | 0.00 | 1.22 | 0.00 | 82 | 1017.4 |
| 20260906151404 | 74 | 129 | 5.0 | 7.0 | 0.00 | 1.22 | 0.00 | 82 | 1016.8 |
| 20260906150904 | 73 | 96 | 2.0 | 6.0 | 0.00 | 1.22 | 0.00 | 83 | 1016.7 |
| 20260906150403 | 73 | 49 | 1.0 | 5.0 | 0.00 | 1.22 | 0.00 | 82 | 1016.8 |
| 20260906150016 | 72 | 64 | 2.0 | 8.0 | 0.00 | 1.22 | 0.00 | 85 | 1017.4 |
| 20260906145903 | 72 | 85 | 3.0 | 5.0 | 0.00 | 1.22 | 0.00 | 84 | 1016.7 |
| 20260906145403 | 73 | 144 | 6.0 | 8.0 | 0.00 | 1.22 | 0.00 | 83 | 1016.9 |
| 20260906144903 | 72 | 114 | 3.0 | 6.0 | 0.00 | 1.22 | 0.00 | 84 | 1016.9 |
| 20260906144521 | 72 | 173 | 2.0 | 6.0 | 0.00 | 1.22 | 0.00 | 85 | 1017.5 |
| 20260906143904 | 72 | 133 | 2.0 | 6.0 | 0.00 | 1.22 | 0.00 | 83 | 1016.8 |
| 20260906143404 | 72 | 133 | 5.0 | 7.0 | 0.00 | 1.22 | 0.00 | 84 | 1016.7 |
| 20260906143027 | 71 | 143 | 0.0 | 5.0 | 0.00 | 1.23 | 0.00 | 87 | 1017.5 |
| 20260906142903 | 71 | 119 | 1.0 | 3.0 | 0.00 | 1.23 | 0.00 | 85 | 1016.7 |
| 20260906142404 | 71 | 131 | 2.0 | 5.0 | 0.00 | 1.23 | 0.00 | 86 | 1016.7 |
| 20260906141508 | 70 | 146 | 1.0 | 4.0 | 0.00 | 1.24 | 0.00 | 88 | 1017.5 |
| 20260906140903 | 70 | 124 | 2.0 | 5.0 | 0.00 | 1.26 | 0.00 | 88 | 1016.6 |
| 20260906140404 | 69 | 26 | 1.0 | 5.0 | 0.00 | 1.27 | 0.00 | 89 | 1016.5 |
| 20260906140024 | 68 | 119 | 1.0 | 3.0 | 0.00 | 1.28 | 0.00 | 92 | 1017.3 |
| 20260906135903 | 68 | 90 | 1.0 | 3.0 | 0.00 | 1.28 | 0.00 | 90 | 1016.5 |
| 20260906135403 | 68 | 76 | 0.0 | 1.0 | 0.00 | 1.29 | 0.00 | 91 | 1016.4 |
| 20260906134904 | 68 | 77 | 1.0 | 2.0 | 0.00 | 1.30 | 0.00 | 91 | 1016.4 |
| 20260906134518 | 67 | 109 | 0.0 | 2.0 | 0.00 | 1.30 | 0.00 | 93 | 1017.2 |
| 20260906134404 | 68 | 109 | 0.0 | 2.0 | 0.00 | 1.30 | 0.00 | 92 | 1016.5 |
| 20260906133903 | 67 | 109 | 0.0 | 2.0 | 0.00 | 1.31 | 0.00 | 92 | 1016.6 |
| 20260906133404 | 67 | 78 | 0.0 | 2.0 | 0.00 | 1.32 | 0.00 | 93 | 1016.5 |
| 20260906133026 | 67 | 67 | 0.0 | 2.0 | 0.00 | 1.33 | 0.00 | 94 | 1017.4 |
| 20260906132903 | 67 | 67 | 1.0 | 2.0 | 0.00 | 1.33 | 0.00 | 93 | 1016.5 |
| 20260906132403 | 67 | 237 | 0.0 | 1.0 | 0.00 | 1.35 | 0.00 | 93 | 1016.5 |
| 20260906131530 | 66 | 237 | 0.0 | 2.0 | 0.00 | 1.38 | 0.00 | 95 | 1017.3 |
| 20260906131404 | 66 | 237 | 0.0 | 1.0 | 0.00 | 1.38 | 0.00 | 94 | 1016.5 |
| 20260906130904 | 66 | 237 | 0.0 | 2.0 | 0.00 | 1.39 | 0.00 | 94 | 1016.5 |
| 20260906130404 | 66 | 237 | 1.0 | 2.0 | 0.00 | 1.41 | 0.00 | 95 | 1016.5 |
| 20260906130031 | 66 | 237 | 0.0 | 1.0 | 0.00 | 1.42 | 0.00 | 97 | 1017.3 |
| 20260906125903 | 66 | 237 | 0.0 | 1.0 | 0.00 | 1.43 | 0.00 | 95 | 1016.5 |
| 20260906125403 | 66 | 237 | 1.0 | 1.0 | 0.00 | 1.47 | 0.00 | 95 | 1016.5 |
| 20260906124516 | 65 | 237 | 0.0 | 3.0 | 0.00 | 1.81 | 0.00 | 97 | 1017.2 |
| 20260906123404 | 66 | 153 | 0.0 | 2.0 | 0.00 | 2.01 | 0.00 | 100 | 1016.4 |
| 20260906123030 | 65 | 143 | 0.0 | 2.0 | 0.00 | 2.01 | 0.00 | 98 | 1017.2 |
| 20260906122904 | 65 | 143 | 1.0 | 2.0 | 0.00 | 2.01 | 0.00 | 96 | 1016.3 |
| 20260906122403 | 65 | 143 | 1.0 | 2.0 | 0.00 | 2.01 | 0.00 | 100 | 1016.2 |
| 20260906121903 | 65 | 143 | 1.0 | 3.0 | 0.00 | 2.01 | 0.00 | 100 | 1016.2 |
| 20260906121538 | 64 | 143 | 0.0 | 3.0 | 0.00 | 2.01 | 0.00 | 98 | 1017.0 |
| 20260906121404 | 65 | 143 | 1.0 | 3.0 | 0.00 | 2.01 | 0.00 | 100 | 1016.2 |
| 20260906120903 | 65 | 143 | 1.0 | 3.0 | 0.00 | 2.01 | 0.00 | 100 | 1016.1 |
| 20260906120030 | 64 | 143 | 0.0 | 0.0 | 0.00 | 2.02 | 0.00 | 98 | 1016.9 |
| 20260906115904 | 65 | 143 | 0.0 | 0.0 | 0.00 | 2.02 | 0.00 | 100 | 1016.1 |
| 20260906115404 | 65 | 143 | 0.0 | 1.0 | 0.00 | 2.04 | 0.00 | 100 | 1016.1 |
| 20260906114903 | 65 | 143 | 1.0 | 2.0 | 0.00 | 2.04 | 0.00 | 100 | 1016.0 |
| 20260906114540 | 64 | 143 | 0.0 | 3.0 | 0.00 | 2.04 | 0.00 | 99 | 1016.8 |
| 20260906114404 | 65 | 143 | 1.0 | 3.0 | 0.00 | 2.04 | 0.00 | 100 | 1015.9 |
| 20260906113904 | 65 | 143 | 2.0 | 3.0 | 0.00 | 2.04 | 0.00 | 100 | 1015.8 |
| 20260906113403 | 65 | 172 | 0.0 | 0.0 | 0.00 | 2.04 | 0.00 | 100 | 1015.6 |
| 20260906113036 | 64 | 172 | 0.0 | 0.0 | 0.00 | 2.04 | 0.00 | 99 | 1016.5 |
| 20260906112904 | 65 | 172 | 0.0 | 0.0 | 0.00 | 2.04 | 0.00 | 100 | 1015.6 |
| 20260906112404 | 65 | 217 | 0.0 | 0.0 | 0.00 | 2.04 | 0.00 | 100 | 1015.5 |
| 20260906111904 | 64 | 217 | 0.0 | 0.0 | 0.00 | 2.04 | 0.00 | 100 | 1015.5 |
| 20260906111527 | 64 | 217 | 0.0 | 0.0 | 0.00 | 2.04 | 0.00 | 99 | 1016.3 |
| 20260906111404 | 64 | 217 | 0.0 | 0.0 | 0.00 | 2.04 | 0.00 | 100 | 1015.4 |
| 20260906110903 | 64 | 173 | 0.0 | 0.0 | 0.00 | 2.04 | 0.00 | 100 | 1015.3 |
| 20260906110403 | 64 | 148 | 0.0 | 0.0 | 0.00 | 2.04 | 0.00 | 100 | 1015.3 |
| 20260906110027 | 64 | 148 | 0.0 | 0.0 | 0.00 | 2.04 | 0.00 | 99 | 1016.1 |
| 20260906105903 | 64 | 148 | 0.0 | 0.0 | 0.00 | 2.04 | 0.00 | 100 | 1015.3 |
| 20260906105403 | 65 | 148 | 0.0 | 0.0 | 0.00 | 2.04 | 0.00 | 100 | 1015.3 |
| 20260906104904 | 65 | 148 | 0.0 | 0.0 | 0.00 | 2.04 | 0.00 | 100 | 1015.2 |
| 20260906104531 | 64 | 148 | 0.0 | 0.0 | 0.00 | 2.04 | 0.00 | 98 | 1016.1 |
| 20260906103903 | 65 | 148 | 0.0 | 0.0 | 0.00 | 2.04 | 0.00 | 100 | 1015.1 |
| 20260906103403 | 65 | 148 | 0.0 | 0.0 | 0.00 | 2.04 | 0.00 | 100 | 1015.1 |
| 20260906103031 | 64 | 148 | 0.0 | 0.0 | 0.00 | 2.04 | 0.00 | 99 | 1015.9 |
| 20260906102904 | 65 | 148 | 0.0 | 0.0 | 0.00 | 2.04 | 0.00 | 100 | 1015.0 |
| 20260906102404 | 65 | 148 | 0.0 | 0.0 | 0.00 | 2.04 | 0.00 | 100 | 1015.0 |
| 20260906101903 | 65 | 148 | 0.0 | 0.0 | 0.00 | 2.04 | 0.00 | 100 | 1015.0 |
| 20260906101519 | 64 | 148 | 0.0 | 0.0 | 0.00 | 2.04 | 0.00 | 99 | 1015.8 |
| 20260906101404 | 65 | 148 | 0.0 | 0.0 | 0.00 | 2.04 | 0.00 | 100 | 1015.1 |
| 20260906100404 | 65 | 148 | 0.0 | 0.0 | 0.00 | 2.04 | 0.00 | 100 | 1015.0 |
| 20260906100026 | 64 | 148 | 0.0 | 0.0 | 0.00 | 2.04 | 0.00 | 98 | 1015.8 |
| 20260906095904 | 65 | 148 | 0.0 | 0.0 | 0.00 | 2.04 | 0.00 | 100 | 1015.0 |
| 20260906095403 | 65 | 148 | 0.0 | 0.0 | 0.00 | 2.04 | 0.00 | 100 | 1015.0 |
| 20260906094904 | 65 | 148 | 0.0 | 0.0 | 0.00 | 2.04 | 0.00 | 100 | 1014.9 |
| 20260906094534 | 64 | 148 | 0.0 | 0.0 | 0.00 | 2.04 | 0.00 | 98 | 1015.6 |
| 20260906094404 | 65 | 148 | 0.0 | 0.0 | 0.00 | 2.04 | 0.00 | 100 | 1015.0 |
| 20260906093903 | 65 | 137 | 0.0 | 0.0 | 0.00 | 2.04 | 0.00 | 100 | 1015.0 |
| 20260906093404 | 65 | 137 | 0.0 | 0.0 | 0.00 | 2.04 | 0.00 | 100 | 1015.0 |
| 20260906093036 | 64 | 137 | 0.0 | 2.0 | 0.00 | 2.04 | 0.00 | 98 | 1015.8 |
| 20260906092904 | 65 | 137 | 0.0 | 0.0 | 0.00 | 2.04 | 0.00 | 100 | 1015.0 |
| 20260906092404 | 65 | 137 | 0.0 | 2.0 | 0.00 | 2.04 | 0.00 | 100 | 1014.9 |
| 20260906091904 | 65 | 286 | 0.0 | 0.0 | 0.00 | 2.04 | 0.00 | 100 | 1014.9 |
| 20260906091505 | 64 | 286 | 0.0 | 0.0 | 0.00 | 2.04 | 0.00 | 98 | 1015.7 |
| 20260906091403 | 65 | 286 | 0.0 | 0.0 | 0.00 | 2.04 | 0.00 | 100 | 1014.9 |
| 20260906090903 | 65 | 286 | 0.0 | 0.0 | 0.00 | 2.04 | 0.00 | 100 | 1014.9 |
| 20260906090403 | 65 | 286 | 0.0 | 0.0 | 0.00 | 2.04 | 0.00 | 100 | 1014.9 |
| 20260906090003 | 64 | 286 | 0.0 | 0.0 | 0.00 | 2.04 | 0.00 | 98 | 1015.8 |
| 20260906085904 | 65 | 286 | 0.0 | 0.0 | 0.00 | 2.04 | 0.00 | 100 | 1014.9 |
| 20260906085404 | 65 | 286 | 0.0 | 0.0 | 0.00 | 2.04 | 0.00 | 100 | 1014.9 |
| 20260906084904 | 65 | 286 | 0.0 | 0.0 | 0.00 | 2.04 | 0.00 | 100 | 1014.8 |
| 20260906084506 | 64 | 286 | 0.0 | 0.0 | 0.00 | 2.04 | 0.00 | 98 | 1015.7 |
| 20260906084404 | 65 | 286 | 0.0 | 0.0 | 0.00 | 2.04 | 0.00 | 100 | 1014.8 |
| 20260906083903 | 65 | 286 | 0.0 | 0.0 | 0.00 | 2.04 | 0.00 | 100 | 1014.8 |
| 20260906083404 | 65 | 286 | 0.0 | 0.0 | 0.00 | 2.04 | 0.00 | 100 | 1014.7 |
| 20260906083014 | 64 | 286 | 0.0 | 0.0 | 0.00 | 2.04 | 0.00 | 98 | 1015.6 |
| 20260906082903 | 65 | 286 | 0.0 | 0.0 | 0.00 | 2.04 | 0.00 | 100 | 1014.7 |
| 20260906082403 | 65 | 286 | 0.0 | 0.0 | 0.00 | 2.04 | 0.00 | 100 | 1014.7 |
| 20260906081903 | 65 | 286 | 0.0 | 0.0 | 0.00 | 2.04 | 0.00 | 100 | 1014.8 |
| 20260906081523 | 64 | 286 | 0.0 | 0.0 | 0.00 | 2.04 | 0.00 | 98 | 1015.6 |
| 20260906081404 | 65 | 286 | 0.0 | 0.0 | 0.00 | 2.04 | 0.00 | 100 | 1014.7 |
| 20260906080404 | 65 | 286 | 0.0 | 0.0 | 0.00 | 2.04 | 0.00 | 100 | 1014.7 |
| 20260906080004 | 64 | 286 | 0.0 | 1.0 | 0.00 | 2.04 | 0.00 | 98 | 1015.4 |
| 20260906075403 | 65 | 286 | 0.0 | 1.0 | 0.00 | 2.04 | 0.00 | 100 | 1014.6 |
| 20260906074904 | 65 | 286 | 0.0 | 0.0 | 0.00 | 2.04 | 0.00 | 100 | 1014.6 |
| 20260906074508 | 64 | 286 | 0.0 | 2.0 | 0.00 | 2.04 | 0.00 | 98 | 1015.4 |
| 20260906073903 | 65 | 286 | 1.0 | 2.0 | 0.00 | 2.04 | 0.00 | 100 | 1014.6 |
| 20260906073404 | 65 | 286 | 0.0 | 1.0 | 0.00 | 2.04 | 0.00 | 100 | 1014.6 |
| 20260906073008 | 64 | 286 | 0.0 | 2.0 | 0.00 | 2.04 | 0.00 | 98 | 1015.5 |
| 20260906072904 | 65 | 286 | 0.0 | 1.0 | 0.00 | 2.04 | 0.00 | 100 | 1014.7 |
| 20260906072403 | 65 | 286 | 1.0 | 2.0 | 0.00 | 2.04 | 0.00 | 100 | 1014.6 |
| 20260906071904 | 65 | 286 | 2.0 | 3.0 | 0.00 | 2.04 | 0.00 | 100 | 1014.7 |
| 20260906071515 | 64 | 280 | 0.0 | 3.0 | 0.00 | 2.04 | 0.00 | 98 | 1015.5 |
| 20260906071404 | 65 | 280 | 1.0 | 3.0 | 0.00 | 2.04 | 0.00 | 100 | 1014.6 |
| 20260906070403 | 65 | 274 | 1.0 | 2.0 | 0.00 | 2.04 | 0.00 | 100 | 1014.7 |
| 20260906070020 | 65 | 274 | 0.0 | 0.0 | 0.00 | 2.04 | 0.00 | 98 | 1015.6 |
| 20260906065904 | 65 | 274 | 0.0 | 0.0 | 0.00 | 2.04 | 0.00 | 100 | 1014.8 |
| 20260906065404 | 65 | 274 | 0.0 | 0.0 | 0.00 | 2.04 | 0.00 | 100 | 1014.8 |
| 20260906064903 | 65 | 274 | 0.0 | 0.0 | 0.00 | 2.04 | 0.00 | 100 | 1014.8 |
| 20260906064505 | 65 | 274 | 0.0 | 0.0 | 0.00 | 2.05 | 0.00 | 98 | 1015.6 |
| 20260906064403 | 65 | 274 | 0.0 | 0.0 | 0.00 | 2.05 | 0.00 | 100 | 1014.8 |
| 20260906063904 | 65 | 274 | 0.0 | 0.0 | 0.00 | 2.05 | 0.00 | 100 | 1014.9 |
| 20260906063404 | 65 | 274 | 0.0 | 0.0 | 0.00 | 2.05 | 0.00 | 100 | 1014.9 |
| 20260906063006 | 65 | 274 | 0.0 | 0.0 | 0.00 | 2.05 | 0.00 | 98 | 1015.8 |
| 20260906062904 | 65 | 274 | 0.0 | 0.0 | 0.00 | 2.05 | 0.00 | 100 | 1014.9 |
| 20260906061904 | 65 | 274 | 0.0 | 0.0 | 0.00 | 2.05 | 0.00 | 100 | 1014.8 |
| 20260906061512 | 65 | 274 | 0.0 | 0.0 | 0.00 | 2.05 | 0.00 | 98 | 1015.7 |
| 20260906061404 | 65 | 274 | 0.0 | 0.0 | 0.00 | 2.05 | 0.00 | 100 | 1014.9 |
| 20260906060904 | 65 | 274 | 0.0 | 0.0 | 0.00 | 2.05 | 0.00 | 100 | 1014.8 |
| 20260906060404 | 65 | 274 | 0.0 | 0.0 | 0.00 | 2.05 | 0.00 | 100 | 1014.7 |
| 20260906060026 | 65 | 274 | 0.0 | 0.0 | 0.00 | 2.05 | 0.00 | 98 | 1015.5 |
| 20260906055904 | 65 | 274 | 0.0 | 0.0 | 0.00 | 2.05 | 0.00 | 100 | 1014.7 |
| 20260906054904 | 65 | 318 | 0.0 | 2.0 | 0.00 | 2.05 | 0.00 | 100 | 1014.7 |
| 20260906054530 | 65 | 318 | 0.0 | 3.0 | 0.00 | 2.05 | 0.00 | 98 | 1015.5 |
| 20260906053904 | 65 | 318 | 1.0 | 3.0 | 0.00 | 2.05 | 0.00 | 96 | 1014.6 |
| 20260906053404 | 65 | 298 | 2.0 | 3.0 | 0.00 | 2.05 | 0.00 | 96 | 1014.7 |
| 20260906053033 | 65 | 282 | 1.0 | 3.0 | 0.00 | 2.05 | 0.00 | 98 | 1015.5 |
| 20260906052903 | 65 | 282 | 1.0 | 3.0 | 0.00 | 2.05 | 0.00 | 96 | 1014.6 |
| 20260906052403 | 65 | 260 | 1.0 | 3.0 | 0.00 | 2.05 | 0.00 | 96 | 1014.7 |
| 20260906051904 | 66 | 258 | 1.0 | 3.0 | 0.00 | 2.05 | 0.00 | 96 | 1014.8 |
| 20260906051511 | 65 | 258 | 1.0 | 3.0 | 0.00 | 2.05 | 0.00 | 98 | 1015.6 |
| 20260906051404 | 66 | 258 | 1.0 | 2.0 | 0.00 | 2.05 | 0.00 | 96 | 1014.8 |
| 20260906050904 | 66 | 258 | 0.0 | 0.0 | 0.00 | 2.05 | 0.00 | 96 | 1014.9 |
| 20260906050030 | 65 | 169 | 0.0 | 1.0 | 0.00 | 2.05 | 0.00 | 98 | 1015.6 |
| 20260906045903 | 66 | 169 | 0.0 | 0.0 | 0.00 | 2.05 | 0.00 | 96 | 1014.8 |
| 20260906045404 | 66 | 167 | 1.0 | 1.0 | 0.00 | 2.05 | 0.00 | 96 | 1014.8 |
| 20260906044532 | 66 | 167 | 0.0 | 1.0 | 0.00 | 2.05 | 0.00 | 98 | 1015.6 |
| 20260906044403 | 66 | 167 | 0.0 | 1.0 | 0.00 | 2.05 | 0.00 | 96 | 1014.9 |
| 20260906043403 | 66 | 167 | 0.0 | 1.0 | 0.00 | 2.05 | 0.00 | 96 | 1015.0 |
| 20260906043027 | 66 | 167 | 0.0 | 1.0 | 0.00 | 2.05 | 0.00 | 98 | 1015.7 |
| 20260906042904 | 66 | 167 | 0.0 | 1.0 | 0.00 | 2.05 | 0.00 | 96 | 1014.9 |
| 20260906042404 | 66 | 167 | 0.0 | 1.0 | 0.00 | 2.05 | 0.00 | 96 | 1015.1 |
| 20260906041903 | 66 | 167 | 0.0 | 0.0 | 0.00 | 2.05 | 0.00 | 96 | 1015.1 |
| 20260906041534 | 66 | 167 | 0.0 | 1.0 | 0.00 | 2.05 | 0.00 | 98 | 1016.0 |
| 20260906041404 | 66 | 167 | 0.0 | 1.0 | 0.00 | 2.05 | 0.00 | 96 | 1015.2 |
| 20260906040904 | 66 | 167 | 0.0 | 1.0 | 0.00 | 2.05 | 0.00 | 96 | 1015.1 |
| 20260906040018 | 66 | 167 | 0.0 | 0.0 | 0.00 | 2.05 | 0.00 | 97 | 1016.0 |
| 20260906035904 | 66 | 167 | 0.0 | 0.0 | 0.00 | 2.05 | 2.05 | 96 | 1015.1 |
| 20260906035404 | 66 | 167 | 0.0 | 1.0 | 0.00 | 2.05 | 2.05 | 96 | 1015.2 |
| 20260906034904 | 66 | 167 | 0.0 | 1.0 | 0.01 | 2.05 | 2.05 | 96 | 1015.2 |
| 20260906034517 | 66 | 167 | 0.0 | 3.0 | 0.01 | 2.05 | 2.05 | 97 | 1016.1 |
| 20260906034404 | 66 | 167 | 0.0 | 2.0 | 0.01 | 2.05 | 2.05 | 96 | 1015.3 |
| 20260906033903 | 66 | 167 | 1.0 | 2.0 | 0.01 | 2.05 | 2.05 | 96 | 1015.4 |
| 20260906033404 | 66 | 177 | 0.0 | 3.0 | 0.01 | 2.05 | 2.05 | 96 | 1015.5 |
| 20260906033036 | 66 | 177 | 1.0 | 3.0 | 0.01 | 2.05 | 2.05 | 98 | 1016.3 |
| 20260906032403 | 67 | 276 | 1.0 | 2.0 | 0.01 | 2.05 | 2.05 | 96 | 1015.5 |
| 20260906031904 | 67 | 276 | 1.0 | 2.0 | 0.01 | 2.05 | 2.05 | 96 | 1015.6 |
| 20260906031529 | 66 | 276 | 0.0 | 3.0 | 0.01 | 2.05 | 2.05 | 97 | 1016.4 |
| 20260906031404 | 67 | 276 | 1.0 | 2.0 | 0.01 | 2.05 | 2.05 | 96 | 1015.6 |
| 20260906030404 | 67 | 311 | 2.0 | 2.0 | 0.02 | 2.05 | 2.05 | 96 | 1015.5 |
| 20260906030030 | 66 | 327 | 1.0 | 2.0 | 0.03 | 2.05 | 2.05 | 97 | 1016.4 |
| 20260906025903 | 67 | 327 | 1.0 | 2.0 | 0.04 | 2.05 | 2.05 | 96 | 1015.5 |
| 20260906025404 | 67 | 327 | 0.0 | 2.0 | 0.10 | 2.05 | 2.05 | 96 | 1015.6 |
| 20260906024903 | 67 | 327 | 1.0 | 2.0 | 0.20 | 2.04 | 2.04 | 96 | 1015.8 |
| 20260906024515 | 66 | 327 | 0.0 | 2.0 | 0.31 | 2.04 | 2.04 | 97 | 1016.6 |
| 20260906024404 | 67 | 327 | 0.0 | 2.0 | 0.34 | 2.04 | 2.04 | 96 | 1015.7 |
| 20260906023904 | 66 | 193 | 0.0 | 0.0 | 0.44 | 2.04 | 2.04 | 96 | 1015.5 |
| 20260906023404 | 66 | 193 | 0.0 | 0.0 | 0.60 | 2.04 | 2.04 | 95 | 1015.6 |
| 20260906023019 | 66 | 193 | 0.0 | 4.0 | 0.69 | 2.04 | 2.04 | 97 | 1016.4 |
| 20260906022904 | 67 | 193 | 0.0 | 3.0 | 0.71 | 2.04 | 2.04 | 95 | 1015.6 |
| 20260906022404 | 67 | 193 | 3.0 | 5.0 | 0.81 | 2.04 | 2.04 | 96 | 1015.7 |
| 20260906021903 | 67 | 148 | 1.0 | 2.0 | 0.85 | 2.04 | 2.04 | 95 | 1015.8 |
| 20260906021528 | 66 | 148 | 0.0 | 3.0 | 0.86 | 2.04 | 2.04 | 97 | 1016.5 |
| 20260906021403 | 67 | 148 | 0.0 | 3.0 | 0.86 | 2.04 | 2.04 | 95 | 1015.7 |
| 20260906020904 | 67 | 144 | 2.0 | 3.0 | 0.85 | 2.03 | 2.03 | 95 | 1015.8 |
| 20260906020404 | 67 | 155 | 2.0 | 5.0 | 0.85 | 2.03 | 2.03 | 95 | 1015.7 |
| 20260906020031 | 67 | 136 | 3.0 | 8.0 | 0.85 | 2.02 | 2.02 | 97 | 1016.5 |
| 20260906015903 | 67 | 144 | 5.0 | 6.0 | 0.84 | 2.01 | 2.01 | 95 | 1015.7 |
| 20260906015404 | 68 | 140 | 5.0 | 8.0 | 0.78 | 1.95 | 1.95 | 95 | 1015.7 |
| 20260906014535 | 68 | 61 | 4.0 | 13.0 | 0.58 | 1.73 | 1.73 | 96 | 1016.5 |
| 20260906014404 | 68 | 108 | 7.0 | 13.0 | 0.56 | 1.70 | 1.70 | 94 | 1015.6 |
| 20260906013903 | 69 | 115 | 3.0 | 9.0 | 0.48 | 1.60 | 1.60 | 95 | 1015.4 |
| 20260906013020 | 69 | 126 | 2.0 | 6.0 | 0.44 | 1.35 | 1.35 | 96 | 1016.0 |
| 20260906012904 | 69 | 102 | 2.0 | 5.0 | 0.46 | 1.33 | 1.33 | 95 | 1015.0 |
| 20260906012404 | 69 | 120 | 1.0 | 2.0 | 0.40 | 1.23 | 1.23 | 95 | 1014.8 |
| 20260906011904 | 69 | 140 | 1.0 | 1.0 | 0.36 | 1.19 | 1.19 | 95 | 1014.6 |
| 20260906011533 | 69 | 140 | 0.0 | 1.0 | 0.35 | 1.17 | 1.17 | 96 | 1015.5 |
| 20260906011403 | 69 | 140 | 0.0 | 1.0 | 0.35 | 1.18 | 1.18 | 94 | 1014.5 |
| 20260906010404 | 69 | 140 | 1.0 | 3.0 | 0.35 | 1.18 | 1.18 | 94 | 1014.3 |
| 20260906010031 | 69 | 140 | 2.0 | 4.0 | 0.34 | 1.16 | 1.16 | 95 | 1015.3 |
| 20260906005904 | 69 | 143 | 3.0 | 3.0 | 0.34 | 1.17 | 1.17 | 94 | 1014.3 |
| 20260906005404 | 69 | 169 | 1.0 | 3.0 | 0.34 | 1.17 | 1.17 | 93 | 1014.4 |
| 20260906004904 | 70 | 115 | 2.0 | 6.0 | 0.32 | 1.15 | 1.15 | 92 | 1014.2 |
| 20260906004529 | 69 | 129 | 2.0 | 6.0 | 0.31 | 1.14 | 1.14 | 94 | 1015.1 |
| 20260906004404 | 70 | 150 | 2.0 | 5.0 | 0.31 | 1.14 | 1.14 | 92 | 1014.3 |
| 20260906003904 | 70 | 332 | 3.0 | 7.0 | 0.29 | 1.12 | 1.12 | 91 | 1014.0 |
| 20260906003404 | 70 | 99 | 8.0 | 12.0 | 0.23 | 1.06 | 1.06 | 89 | 1014.1 |
| 20260906003032 | 70 | 103 | 3.0 | 6.0 | 0.08 | 0.91 | 0.91 | 93 | 1015.0 |
| 20260906002904 | 71 | 98 | 2.0 | 5.0 | 0.04 | 0.87 | 0.87 | 91 | 1014.1 |
| 20260906002404 | 71 | 106 | 3.0 | 6.0 | 0.00 | 0.83 | 0.83 | 90 | 1014.0 |
| 20260906001522 | 70 | 352 | 0.0 | 3.0 | 0.00 | 0.83 | 0.83 | 91 | 1014.9 |
| 20260906001403 | 71 | 319 | 0.0 | 2.0 | 0.00 | 0.83 | 0.83 | 89 | 1013.9 |
| 20260906000903 | 71 | 314 | 2.0 | 3.0 | 0.00 | 0.83 | 0.83 | 89 | 1013.9 |
| 20260906000404 | 71 | 307 | 1.0 | 5.0 | 0.00 | 0.83 | 0.83 | 89 | 1013.9 |
| 20260906000028 | 71 | 263 | 1.0 | 4.0 | 0.00 | 0.83 | 0.83 | 91 | 1014.8 |
| 20260905235904 | 71 | 270 | 2.0 | 5.0 | 0.00 | 0.83 | 0.83 | 89 | 1013.8 |
| 20260905235404 | 71 | 293 | 2.0 | 5.0 | 0.00 | 0.83 | 0.83 | 89 | 1013.8 |
| 20260905234904 | 72 | 247 | 3.0 | 3.0 | 0.00 | 0.83 | 0.83 | 88 | 1013.9 |
| 20260905234530 | 72 | 296 | 2.0 | 3.0 | 0.00 | 0.83 | 0.83 | 89 | 1014.6 |
| 20260905234403 | 72 | 325 | 3.0 | 3.0 | 0.00 | 0.83 | 0.83 | 87 | 1013.9 |
| 20260905233902 | 73 | 303 | 2.0 | 5.0 | 0.00 | 0.83 | 0.83 | 87 | 1014.0 |
| 20260905233403 | 73 | 253 | 2.0 | 5.0 | 0.00 | 0.83 | 0.83 | 87 | 1014.0 |
| 20260905233009 | 73 | 306 | 1.0 | 3.0 | 0.00 | 0.83 | 0.83 | 87 | 1014.7 |
| 20260905232903 | 74 | 257 | 1.0 | 2.0 | 0.00 | 0.83 | 0.83 | 85 | 1014.1 |
| 20260905232403 | 74 | 255 | 1.0 | 2.0 | 0.00 | 0.83 | 0.83 | 83 | 1014.1 |
| 20260905231903 | 75 | 250 | 0.0 | 2.0 | 0.00 | 0.83 | 0.83 | 82 | 1014.2 |
| 20260905231514 | 75 | 250 | 0.0 | 4.0 | 0.00 | 0.83 | 0.83 | 83 | 1014.8 |
| 20260905231403 | 75 | 250 | 1.0 | 2.0 | 0.00 | 0.83 | 0.83 | 81 | 1014.2 |
| 20260905230902 | 76 | 242 | 2.0 | 3.0 | 0.00 | 0.83 | 0.83 | 79 | 1014.1 |
| 20260905230403 | 76 | 279 | 1.0 | 3.0 | 0.00 | 0.83 | 0.83 | 78 | 1014.2 |
| 20260905230026 | 76 | 336 | 1.0 | 7.0 | 0.00 | 0.83 | 0.83 | 80 | 1014.9 |
| 20260905225403 | 76 | 288 | 2.0 | 6.0 | 0.00 | 0.83 | 0.83 | 76 | 1014.3 |
| 20260905224505 | 76 | 313 | 0.0 | 2.0 | 0.00 | 0.83 | 0.83 | 75 | 1014.8 |
| 20260905224402 | 77 | 269 | 0.0 | 2.0 | 0.00 | 0.83 | 0.83 | 75 | 1014.0 |
| 20260905223903 | 77 | 339 | 0.0 | 2.0 | 0.00 | 0.83 | 0.83 | 75 | 1014.1 |
| 20260905223403 | 77 | 320 | 0.0 | 5.0 | 0.00 | 0.83 | 0.83 | 75 | 1014.1 |
| 20260905223007 | 76 | 320 | 2.0 | 8.0 | 0.00 | 0.83 | 0.83 | 76 | 1014.9 |
| 20260905222903 | 77 | 323 | 5.0 | 8.0 | 0.00 | 0.83 | 0.83 | 73 | 1014.1 |
| 20260905222403 | 77 | 315 | 5.0 | 8.0 | 0.00 | 0.83 | 0.83 | 73 | 1014.0 |
| 20260905221903 | 77 | 293 | 5.0 | 8.0 | 0.00 | 0.83 | 0.83 | 72 | 1014.1 |
| 20260905221517 | 77 | 313 | 3.0 | 8.0 | 0.00 | 0.83 | 0.83 | 74 | 1014.8 |
| 20260905221403 | 77 | 291 | 5.0 | 7.0 | 0.00 | 0.83 | 0.83 | 73 | 1014.1 |
| 20260905220903 | 78 | 303 | 3.0 | 8.0 | 0.00 | 0.83 | 0.83 | 71 | 1014.0 |
| 20260905220403 | 78 | 320 | 4.0 | 7.0 | 0.00 | 0.83 | 0.83 | 70 | 1013.7 |
| 20260905220018 | 77 | 219 | 4.0 | 13.0 | 0.00 | 0.83 | 0.83 | 72 | 1014.5 |
| 20260905215903 | 78 | 291 | 5.0 | 12.0 | 0.00 | 0.83 | 0.83 | 72 | 1013.6 |
| 20260905215403 | 78 | 324 | 6.0 | 13.0 | 0.00 | 0.83 | 0.83 | 72 | 1013.7 |
| 20260905214902 | 78 | 294 | 3.0 | 9.0 | 0.00 | 0.83 | 0.83 | 72 | 1013.7 |
| 20260905214526 | 77 | 325 | 4.0 | 9.0 | 0.00 | 0.83 | 0.83 | 74 | 1014.4 |
| 20260905214403 | 77 | 329 | 6.0 | 9.0 | 0.00 | 0.83 | 0.83 | 72 | 1013.7 |
| 20260905213903 | 78 | 325 | 4.0 | 10.0 | 0.00 | 0.83 | 0.83 | 72 | 1013.8 |
| 20260905213403 | 78 | 315 | 8.0 | 13.0 | 0.00 | 0.83 | 0.83 | 71 | 1013.7 |
| 20260905213007 | 77 | 318 | 4.0 | 11.0 | 0.00 | 0.83 | 0.83 | 73 | 1014.4 |
| 20260905211902 | 78 | 325 | 7.0 | 12.0 | 0.00 | 0.83 | 0.83 | 69 | 1013.4 |
| 20260905211507 | 78 | 304 | 5.0 | 10.0 | 0.00 | 0.83 | 0.83 | 72 | 1014.3 |
| 20260905211402 | 79 | 305 | 5.0 | 10.0 | 0.00 | 0.83 | 0.83 | 70 | 1013.4 |
| 20260905210903 | 79 | 327 | 6.0 | 9.0 | 0.00 | 0.83 | 0.83 | 69 | 1013.3 |
| 20260905210403 | 79 | 300 | 5.0 | 7.0 | 0.00 | 0.83 | 0.83 | 70 | 1013.4 |
| 20260905210014 | 78 | 360 | 3.0 | 10.0 | 0.00 | 0.83 | 0.83 | 71 | 1014.2 |
| 20260905205903 | 79 | 349 | 3.0 | 7.0 | 0.00 | 0.83 | 0.83 | 71 | 1013.4 |
| 20260905205402 | 78 | 266 | 6.0 | 10.0 | 0.00 | 0.83 | 0.83 | 69 | 1013.3 |
| 20260905204522 | 78 | 338 | 6.0 | 10.0 | 0.00 | 0.83 | 0.83 | 71 | 1014.3 |
| 20260905204403 | 78 | 317 | 6.0 | 10.0 | 0.00 | 0.83 | 0.83 | 70 | 1013.7 |
| 20260905203402 | 78 | 306 | 6.0 | 10.0 | 0.00 | 0.84 | 0.83 | 70 | 1013.5 |
| 20260905203028 | 78 | 323 | 7.0 | 12.0 | 0.00 | 0.84 | 0.83 | 70 | 1014.4 |
| 20260905202903 | 78 | 316 | 9.0 | 12.0 | 0.00 | 0.85 | 0.83 | 67 | 1013.6 |
| 20260905202403 | 78 | 304 | 7.0 | 12.0 | 0.00 | 0.85 | 0.83 | 67 | 1013.7 |
| 20260905201903 | 79 | 334 | 2.0 | 7.0 | 0.00 | 0.85 | 0.83 | 71 | 1013.6 |
| 20260905201530 | 78 | 24 | 4.0 | 7.0 | 0.00 | 0.86 | 0.83 | 70 | 1014.5 |
| 20260905201403 | 79 | 16 | 3.0 | 7.0 | 0.00 | 0.88 | 0.83 | 69 | 1013.6 |
| 20260905200903 | 78 | 13 | 2.0 | 7.0 | 0.00 | 0.90 | 0.83 | 70 | 1013.6 |
| 20260905200403 | 78 | 10 | 2.0 | 7.0 | 0.00 | 0.94 | 0.83 | 70 | 1013.7 |
| 20260905200013 | 78 | 319 | 6.0 | 11.0 | 0.00 | 0.99 | 0.83 | 70 | 1014.6 |
| 20260905195903 | 78 | 299 | 6.0 | 12.0 | 0.00 | 1.03 | 0.83 | 69 | 1013.9 |
| 20260905195402 | 78 | 300 | 5.0 | 9.0 | 0.00 | 1.37 | 0.83 | 70 | 1013.9 |
| 20260905194903 | 78 | 318 | 3.0 | 9.0 | 0.00 | 1.37 | 0.83 | 71 | 1014.0 |
| 20260905194518 | 78 | 309 | 4.0 | 11.0 | 0.00 | 1.37 | 0.83 | 73 | 1014.9 |
| 20260905193902 | 78 | 330 | 7.0 | 12.0 | 0.00 | 1.37 | 0.83 | 71 | 1014.2 |
| 20260905193027 | 78 | 324 | 4.0 | 10.0 | 0.00 | 1.37 | 0.83 | 73 | 1015.0 |
| 20260905192903 | 79 | 0 | 5.0 | 8.0 | 0.00 | 1.37 | 0.83 | 69 | 1014.3 |
| 20260905192402 | 79 | 12 | 4.0 | 10.0 | 0.00 | 1.37 | 0.83 | 69 | 1014.2 |
| 20260905191903 | 79 | 55 | 4.0 | 10.0 | 0.00 | 1.37 | 0.83 | 69 | 1014.2 |
| 20260905191530 | 78 | 19 | 3.0 | 9.0 | 0.00 | 1.37 | 0.83 | 71 | 1015.1 |
| 20260905191403 | 78 | 341 | 3.0 | 7.0 | 0.00 | 1.37 | 0.83 | 68 | 1014.3 |
| 20260905190903 | 78 | 344 | 5.0 | 7.0 | 0.00 | 1.37 | 0.83 | 68 | 1014.4 |
| 20260905190031 | 78 | 16 | 2.0 | 9.0 | 0.00 | 1.37 | 0.83 | 69 | 1015.2 |